This is the latest recevied weather packets stored in our database for station/object GBTWP-2. If no packets are shown the sender has not sent any weather packets the latest 10 day(s).
| Time | Temp. | Humidity | Pressure | Rain* | Wind** | Luminosity | Snow |
|---|---|---|---|---|---|---|---|
| 1778017502 | 13.33° C | 46% | 1009.8 hPa | 0 mm | - | 64 W/m² | - |
| 1778016301 | 13.33° C | 50% | 1009.9 hPa | 0 mm | - | 76 W/m² | - |
| 1778015402 | 13.33° C | 52% | 1009.8 hPa | 0 mm | - | 71 W/m² | - |
| 1778014502 | 13.33° C | 56% | 1009.9 hPa | 0 mm | - | 89 W/m² | - |
| 1778013902 | 13.33° C | 52% | 1009.7 hPa | 0 mm | - | 86 W/m² | - |
| 1778013601 | 13.33° C | 55% | 1009.8 hPa | 0 mm | - | 93 W/m² | - |
| 1778013302 | 13.33° C | 52% | 1009.6 hPa | 0 mm | - | 98 W/m² | - |
| 1778013001 | 13.33° C | 56% | 1009.8 hPa | 0 mm | - | 99 W/m² | - |
| 1778012702 | 13.33° C | 56% | 1009.8 hPa | 0 mm | - | 93 W/m² | - |
| 1778011802 | 13.33° C | 58% | 1009.8 hPa | 0 mm | - | 99 W/m² | - |
| 1778010602 | 12.78° C | 64% | 1009.8 hPa | 0 mm | - | 80 W/m² | - |
| 1778010301 | 12.78° C | 62% | 1009.9 hPa | 0 mm | - | 91 W/m² | - |
| 1778009402 | 12.78° C | 63% | 1010 hPa | 0 mm | - | 106 W/m² | - |
| 1778009102 | 12.78° C | 63% | 1010 hPa | 0 mm | - | 87 W/m² | - |
| 1778008802 | 12.78° C | 63% | 1009.8 hPa | 0 mm | - | 91 W/m² | - |
| 1778008202 | 12.22° C | 67% | 1010 hPa | 0 mm | - | 111 W/m² | - |
| 1778007902 | 12.22° C | 65% | 1009.8 hPa | 0 mm | - | 84 W/m² | - |
| 1778007601 | 12.22° C | 68% | 1009.8 hPa | 0 mm | - | 70 W/m² | - |
| 1778007302 | 12.22° C | 66% | 1009.8 hPa | 0 mm | - | 66 W/m² | - |
| 1778006402 | 12.78° C | 65% | 1010 hPa | 0 mm | - | 72 W/m² | - |
| 1778005802 | 12.78° C | 65% | 1009.8 hPa | 0 mm | - | 93 W/m² | - |
| 1778005501 | 12.78° C | 66% | 1009.6 hPa | 0 mm | - | 158 W/m² | - |
| 1778004901 | 12.22° C | 70% | 1009.6 hPa | 0 mm | - | 153 W/m² | - |
| 1778004002 | 11.67° C | 71% | 1009.4 hPa | 0 mm | - | 108 W/m² | - |
| 1778003701 | 12.22° C | 69% | 1009.5 hPa | 0 mm | - | 72 W/m² | - |
* Rain latest hour (hover to see other rain measurements)
** Current wind speed in m/s (hover to see current wind gust speed)